EFIV Weather Reports


time (UTC)temp
C
wind
direction
speed
KPH
gust
KPH
rain 1hr
cm
rain 24hr
cm
rain mn
cm
humidity
%
barometer
mb
20260507132730 6 23 11.3 17.7 0.00 0.00 0.00 44 1014.5
20260507130732 5 52 16.1 22.5 0.00 0.00 0.00 47 1014.5
20260507124730 6 17 20.9 27.4 0.00 0.00 0.00 46 1014.4
20260507122730 6 34 11.3 16.1 0.00 0.00 0.00 41 1014.4
20260507120731 6 347 11.3 22.5 0.00 0.00 0.00 43 1014.3
20260507114731 6 16 6.4 9.7 0.00 0.00 0.00 39 1014.1
20260507112729 5 36 14.5 24.1 0.00 0.00 0.00 41 1014.1
20260507110730 5 46 17.7 22.5 0.00 0.00 0.00 48 1014.0
20260507104729 6 308 9.7 14.5 0.00 0.00 0.00 39 1013.9
20260507102729 5 217 4.8 9.7 0.00 0.00 0.00 45 1014.0
20260507100729 5 333 9.7 17.7 0.00 0.00 0.00 46 1013.9
20260507094730 5 90 8.0 16.1 0.00 0.00 0.00 50 1013.7
20260507092730 4 50 14.5 19.3 0.00 0.00 0.00 59 1013.8
20260507090730 6 327 9.7 29.0 0.00 0.00 0.00 44 1013.6
20260507084729 4 316 8.0 14.5 0.00 0.00 0.00 51 1013.7
20260507082730 4 333 3.2 9.7 0.00 0.00 0.00 54 1013.7
20260507080729 5 37 9.7 14.5 0.00 0.00 0.00 52 1013.6
20260507074730 3 316 4.8 8.0 0.00 0.00 0.00 60 1013.7
20260507072729 3 101 4.8 8.0 0.00 0.00 0.00 60 1013.6
20260507070729 4 93 3.2 11.3 0.00 0.00 0.00 62 1013.4
20260507064729 3 346 3.2 4.8 0.00 0.00 0.00 70 1013.5
20260507062729 3 17 3.2 4.8 0.00 0.00 0.00 71 1013.5
20260507060729 2 354 6.4 11.3 0.00 0.00 0.00 72 1013.3
20260507054729 2 54 6.4 11.3 0.00 0.00 0.00 70 1013.2
20260507052729 2 169 3.2 4.8 0.00 0.00 0.00 72 1013.1
20260507050728 3 160 1.6 3.2 0.00 0.00 0.00 75 1013.0
20260507044729 1 227 1.6 3.2 0.00 0.00 0.00 84 1013.1
20260507042728 1 260 1.6 3.2 0.00 0.00 0.00 88 1013.0
20260507040730 0 230 1.6 3.2 0.00 0.00 0.00 92 1012.9
20260507034729 0 246 1.6 3.2 0.00 0.00 0.00 93 1012.8
20260507032729 0 166 1.6 4.8 0.00 0.00 0.00 93 1012.7
20260507030730 0 226 3.2 4.8 0.00 0.00 0.00 93 1012.6
20260507024728 0 286 4.8 6.4 0.00 0.00 0.00 94 1012.6
20260507022729 0 332 3.2 6.4 0.00 0.00 0.00 95 1012.4
20260507020729 0 142 1.6 3.2 0.00 0.00 0.00 95 1012.3
20260507014729 0 212 4.8 4.8 0.00 0.00 0.00 94 1012.2
20260507012728 0 253 3.2 3.2 0.00 0.00 0.00 94 1012.2
20260507010728 0 4 1.6 3.2 0.00 0.00 0.00 94 1012.1
20260507004728 0 5 3.2 4.8 0.00 0.00 0.00 94 1012.0
20260507002728 0 34 4.8 6.4 0.00 0.00 0.00 94 1011.9
20260507000728 0 57 3.2 4.8 0.00 0.00 0.00 93 1011.7
20260506234729 0 33 3.2 4.8 0.00 0.00 0.00 93 1011.7
20260506232728 0 14 3.2 4.8 0.00 0.00 0.00 93 1011.6
20260506230730 0 25 6.4 8.0 0.00 0.00 0.00 92 1011.4
20260506224727 0 49 6.4 8.0 0.00 0.00 0.00 91 1011.3
20260506222728 0 353 3.2 4.8 0.00 0.00 0.00 89 1011.3
20260506220728 1 235 3.2 4.8 0.00 0.00 0.00 85 1011.2
20260506212728 1 304 3.2 4.8 0.00 0.00 0.00 82 1010.9
20260506210728 1 308 4.8 6.4 0.00 0.00 0.00 82 1010.8
20260506204727 1 324 9.7 19.3 0.00 0.00 0.00 78 1010.8
20260506202728 1 265 6.4 9.7 0.00 0.00 0.00 72 1010.6
20260506200728 1 242 3.2 4.8 0.00 0.00 0.00 75 1010.3
20260506194727 2 240 6.4 8.0 0.00 0.00 0.00 67 1010.1
20260506192727 1 242 6.4 9.7 0.00 0.00 0.00 69 1010.1
20260506190727 1 46 3.2 4.8 0.00 0.00 0.00 76 1009.9
20260506184727 2 25 4.8 6.4 0.00 0.00 0.00 65 1009.7
20260506180727 3 134 4.8 6.4 0.00 0.00 0.00 62 1009.4
20260506174727 3 98 6.4 9.7 0.00 0.00 0.00 58 1009.2
20260506172726 4 115 6.4 9.7 0.00 0.00 0.00 58 1009.1
20260506170727 4 45 8.0 12.9 0.00 0.00 0.00 58 1009.0
20260506164726 4 41 11.3 16.1 0.00 0.00 0.00 58 1008.9
20260506162727 4 31 9.7 14.5 0.00 0.00 0.00 53 1008.8
20260506160726 4 17 17.7 24.1 0.00 0.00 0.00 49 1008.7
20260506154727 5 306 9.7 14.5 0.00 0.00 0.00 46 1008.5
20260506152727 5 268 11.3 14.5 0.00 0.00 0.00 47 1008.4
20260506150726 5 222 8.0 11.3 0.00 0.00 0.00 47 1008.3
20260506144725 5 231 6.4 11.3 0.00 0.00 0.00 48 1008.3
20260506142726 4 273 4.8 11.3 0.00 0.00 0.00 57 1008.3
20260506140726 3 314 9.7 17.7 0.00 0.00 0.00 62 1008.3
20260506134726 3 308 12.9 17.7 0.00 0.00 0.00 61 1008.3